Location: Venise Bay
(45.0825°N, 73.1481°W)
Time: 00:59:38
(UTC-05:00)

ISS - Visible Passes

Search period start: 27 January 2021 00:00
Search period end: 06 February 2021 00:00
Orbit: 418 x 421 km, 51.6° (Epoch: 27 January)

Date Brightness Start Highest point End Pass type
(mag) Time Alt. Az. Time Alt. Az. Time Alt. Az.
27 Jan -2.2 18:14:05 10° WNW 18:16:59 26° N 18:18:09 21° NNE visible
28 Jan -2.3 17:26:31 10° WNW 17:29:29 27° N 17:32:27 10° NE visible
28 Jan -1.9 19:03:51 10° NW 19:05:44 24° NNW 19:05:44 24° NNW visible
29 Jan -2.4 18:16:28 10° NW 18:19:26 28° N 18:20:23 24° NE visible
29 Jan -0.3 19:53:15 10° WNW 19:53:21 11° WNW 19:53:21 11° WNW visible
30 Jan -2.3 17:29:00 10° NW 17:31:55 26° N 17:34:50 10° ENE visible
30 Jan -2.3 19:05:55 10° NW 19:08:02 32° NW 19:08:02 32° NW visible
31 Jan -3.0 18:18:34 10° NW 18:21:47 38° NNE 18:22:46 30° ENE visible
31 Jan -0.4 19:55:24 10° WNW 19:55:45 12° WNW 19:55:45 12° WNW visible
01 Feb -2.7 17:31:11 10° NW 17:34:16 31° NNE 17:37:21 10° ENE visible
01 Feb -2.9 19:07:57 10° WNW 19:10:34 49° WNW 19:10:34 49° WNW visible
02 Feb -3.8 18:20:32 10° WNW 18:23:56 74° NNE 18:25:29 29° ESE visible
02 Feb -0.4 19:58:01 10° W 19:58:29 12° W 19:58:29 12° W visible
03 Feb -3.5 17:33:09 10° NW 17:36:29 51° NNE 17:39:48 10° E visible
03 Feb -2.1 19:10:12 10° WNW 19:13:10 28° SW 19:13:32 28° SSW visible
04 Feb -2.8 18:22:36 10° WNW 18:25:51 45° SW 18:28:48 12° SE visible
05 Feb -3.5 17:35:07 10° WNW 17:38:29 73° SSW 17:41:51 10° SE visible
05 Feb -0.6 19:13:42 10° WSW 19:14:45 11° SW 19:15:48 10° SSW visible
